DRAGON CRS-18 (44446 NORAD) Tracking and Keplerian Element Data

This shows tracking and keplerian element data for the satellite.

Feedback or suggestion? Click here.




ElementValue
Catalog44446
NameDRAGON CRS-18
Epoch Orbit509
Epoch Day239.71730418
Epoch Year2019
RAAN6.4496
Inclination51.6451
Eccentricity0.0012921
Argument of Perigee282.6291
Mean Anonmoly225.0377
Mean Motion15.53827763
Decay Rate-1.792E-05
L11 44446U 19044A 19239.71730418 -.00001792 00000-0 -19835-4 0 9996
L22 44446 51.6451 6.4496 0012921 282.6291 225.0377 15.53827763 5097

Live tracking and technical data element details for DRAGON CRS-18 (NORAD 44446). DRAGON CRS-18 can be tracked NOW for your location showing map with azimuth and elevation plus other details from your city location.

Track the satellite on the map from your city or location and see movement details for azimuth, elevation, latitude, longitude, range, height, and movement on the map or in text.







IsCatalogInMostPopularTable: catalog: 44446, numindb: 19
Update: records affected: 1



GetName: 44446 DRAGON CRS-18

Hit Count: updated at: Tue, 22 Oct 2019 23:40:54 GMT